Regional Weather Roundup
Issued by NWS Wakefield, VA

Home | Current Version | Previous Version | Text Only | Print | Product List | Glossary On
Versions: 1 2 3 4 5 6 7 8 9 10 11 12 13 14 15 16 17 18 19 20 21 22 23 24 25 26 27 28 29 30 31 32 33 34 35 36 37 38 39 40 41 42 43 44 45 46 47 48 49 50
000
ASUS41 KAKQ 031915
RWRAKQ

REGIONAL WEATHER ROUNDUP
NATIONAL WEATHER SERVICE WAKEFIELD VA
300 PM EDT MON AUG 03 2015

Note: "fair" indicates few or no clouds below 12,000 feet with no
significant weather and/or obstructions to visibility. * = Denotes
station may not report precipitation (e.g., rain,snow,etc.),
thunder or fog.

VAZ042-051-052>054-056-032000-
NORTHERN VIRGINIA

CITY           SKY/WX    TMP DP  RH WIND       PRES   REMARKS
WASH NATIONAL  PTSUNNY   92  61  35 S13       29.84S
DULLES         PTSUNNY   87  61  41 SW10      29.84S
FORT BELVOIR   MOSUNNY   89  60  36 S8        29.83F
QUANTICO       PTSUNNY   93  64  38 S7        29.81F HX  95
FREDERICKSBRG* MOSUNNY   92  65  42 S8        29.84F
STAFFORD*      MOSUNNY   90  55  30 SW6       29.88F
WARRENTON      MOSUNNY   90  67  46 S7        29.84F
CULPEPER*      PTSUNNY   86  65  48 S8        29.85F
MANASSAS*      SUNNY     88  63  42 SW9       29.84S
LEESBURG*      PTSUNNY   91  64  40 SW12      29.84S
WINCHESTER     MOSUNNY   91  59  33 SW9       29.84S
FRONT ROYAL*   FAIR      86  63  45 S7G18     29.84F
LURAY*         FAIR      91  61  35 S12G17    29.87S
$$

VAZ048-049-060>072-079>083-032000-
CENTRAL AND SOUTH CENTRAL VIRGINIA

CITY           SKY/WX    TMP DP  RH WIND       PRES   REMARKS
RICHMOND       MOSUNNY   91  69  48 S14       29.86F HX  96
CHESTERFIELD*  FAIR      90  63  40 S12       29.87F
PETERSBURG*    PTSUNNY   88  73  61 S5        29.89R HX  95
HANOVER        SUNNY     90  67  46 NW7       29.87F
TAPPAHANNOCK*  MOSUNNY   88  66  48 S7        29.87F
QUINTON*       FAIR      89  72  56 S7        29.86S HX  95
CHARLOTTSVILLE MOSUNNY   89  61  38 VRB6      29.86F
GORDONSVILLE*  FAIR      88  64  45 SW7       29.85S
ORANGE*        MOSUNNY   90  63  40 S8        29.87F
LOUISA*        MOSUNNY   91  61  35 W8        29.86S
BUMPASS*       FAIR      89  64  43 SW5       29.86F
FARMVILLE*     MOSUNNY   92  57  30 SW7       29.87S
CREWE*         FAIR     N/A N/A N/A S6        29.88S
FORT PICKETT*  FAIR      88  67  48 S8        29.89S
CHASE CITY*    FAIR      90  67  46 W7        29.89F
CLARKSVILLE*   MOCLDY    86  68  54 S5        29.90S
SOUTH HILL*    PTSUNNY   83  74  72 CALM      29.96R
LAWRENCEVILLE* MOCLDY    88  70  55 MISG      29.89S
EMPORIA*       MOSUNNY   90  68  48 S3        29.90S
$$

VAZ088>098-032000-
SOUTHEAST VIRGINIA

CITY           SKY/WX    TMP DP  RH WIND       PRES   REMARKS
NORFOLK        MOSUNNY   91  68  46 SW10      29.89R HX  95
VIRGINIA BEACH MOSUNNY   92  68  45 SW15G21   29.89R HX  96
NORFOLK NAVAL  PTSUNNY   90  69  50 S9G16     29.90S
WEST POINT*    MOSUNNY   91  68  46 S8G18     29.88S HX  95
SALUDA*        FAIR      88  73  60 S8G16     29.87F HX  95
NEWPORT NEWS   SUNNY     91  70  49 SW13G21   29.88S HX  96
LANGLEY AFB    PTSUNNY   90  70  52 S13       29.88S HX  95
FORT EUSTIS    SUNNY     92  68  46 S7        29.86F HX  96
WILLIAMSBURG*  SUNNY     93  73  52 SW7       29.88F HX 102
HR EXEC AP*    FAIR      90  72  55 S13       29.91S HX  96
FRANKLIN*      MOSUNNY   92  69  46 S10G17    29.89S HX  97
WAKEFIELD      MOSUNNY   90  68  48 VRB7      29.88F
$$

VAZ020-022-025-037-045-032000-
WEST CENTRAL AND SOUTHWEST VIRGINIA

CITY           SKY/WX    TMP DP  RH WIND       PRES   REMARKS
STAUNTON*      MOSUNNY   90  57  33 SW6G16    29.92S
WAYNESBORO*    FAIR      84  61  45 W3        29.92S
HOT SPRINGS VA SUNNY     77  57  50 SW8       30.06S
LYNCHBURG      SUNNY     87  61  41 SW7       29.92F
DANVILLE       MOSUNNY   91  63  39 VRB6      29.90F
SOUTH BOSTON*  FAIR      89  63  41 SW5       29.90S
MARTINSVILLE   MOSUNNY   92  57  30 NW5       29.95S
ROANOKE        MOSUNNY   90  54  29 W10       29.94S
BLACKSBURG     SUNNY     84  62  47 SW7       30.01F
DUBLIN*          N/A     85  56  35 W7G16     30.00F
MARION*        SUNNY     82  58  45 SW9       30.05S
HILLSVILLE*    SUNNY     82  57  42 S7        30.02F
RICHLANDS*     FAIR      80  62  53 W5        30.04S
WISE*          SUNNY     84  54  34 SW10G16   30.05S
ABINGDON*      SUNNY     85  53  32 SW7       30.02S
$$

MDZ021>025-VAZ099-100-032000-
SOUTHERN MARYLAND AND THE DELMARVA PENINSULA

CITY           SKY/WX    TMP DP  RH WIND       PRES   REMARKS
PATUXENT RIVER MOSUNNY   89  65  44 SW9G20    29.85F
BAY BRIDGE APT   N/A     88  57  35 S9        29.83F
LEONARDTOWN    SUNNY     88  63  42 SW7       29.88S
DOVER          SUNNY     90  65  42 S8        29.82F
GEORGETOWN     SUNNY     90  62  39 W8        29.86S
EASTON         MOSUNNY   90  63  40 MISG      29.88F
CAMBRIDGE      MOSUNNY   86  64  48 S9        29.86S
SALISBURY      SUNNY     88  65  46 SW12      29.86S
OCEAN CITY     SUNNY     85  74  69 S9G18     29.86F
WALLOPS ISLAND SUNNY     85  76  74 S20       29.88S
ACCOMACK*      PTSUNNY   88  77  70 S9        29.88F HX 100
$$

NCZ012>017-030>032-032000-
NORTH CENTRAL AND EASTERN NORTH CAROLINA

CITY           SKY/WX    TMP DP  RH WIND       PRES   REMARKS
ROANOKE RAPIDS FAIR      91  64  40 S10G17    29.89F
RALEIGH        PTSUNNY   93  67  42 W8        29.91F HX  96
ELIZABETH CITY MOSUNNY   86  74  67 S10       29.93S
AHOSKIE*       SUNNY     89  69  50 S9        29.90S
EDENTON*         N/A     88  73  60 S9        29.93S HX  95
CURRITUCK*     MOSUNNY   87  69  55 SW6       29.93S
KILL DEVIL HLS MOSUNNY   84  72  67 SW9       29.94F
MANTEO         MOSUNNY   81  73  76 SW15      29.96S
CAPE HATTERAS  RAIN      73  71  93 SW16G23   30.00S
TARBORO*         N/A     92  70  47 S7        29.91F HX  97
GOLDSBORO      MOSUNNY   92  70  47 SW5       29.89F HX  97
WASHINGTON     MOSUNNY   87  73  64 SE12      29.93S
GREENVILLE     MOSUNNY   91  70  49 W7        29.94S HX  97
NEW BERN       CLOUDY    82  73  74 S12G21    29.97F
WILMINGTON     TSTM      74  72  93 W14       29.99R VSB 1
$$

VAZ048-032000-
ELSEWHERE

CITY           SKY/WX    TMP DP  RH WIND       PRES   REMARKS
HARRISBURG PA  PTSUNNY   89  63  41 VRB7      29.80S
BALTIMORE      PTSUNNY   89  57  33 S8        29.81F
ANNAPOLIS      SUNNY     87  62  43 S10G20    29.82F
ANDREWS AFB    MOSUNNY   90  59  34 SW14      29.83F
PHILADELPHIA   MOSUNNY   91  60  35 SW15      29.81F
HENDERSON NC   MOSUNNY   86  67  52 N10       29.91S
GREENSBORO     PTSUNNY   89  64  43 W9        29.92F
ROCKY MOUNT    SUNNY     95  64  35 VRB3      29.91S HX  97
$$

VAZ100-032000-
MARINE

STATION/POSITION TIME  TEMP    WIND        PRES    WAVE   SWELL
                       AIR SEA DIR/SP/G            HT/PER HT/PER
                 (UTC) (F)     (DEG/KT/KT) (MB)    (FT/S) (FT/S)
BRANDYWINE LGT   1800   79 75  160/  8/  9 1011.2F
CAPE MAY NJ      1800   81 75  180/  9/ 14 1010.9F
LEWES DE         1800   88 73  240/  9/ 15 1010.8F
15NM E FENWICK I 1850   80 80  180/ 17/ 19 1011.4F   3/11   2/11
OCEAN-CITY-INLET 1800   80 77  200/ 14/ 19 1010.7F
WACHAPREAGUE VA  1812   83 87  190/ 12/ 16 1012.0F
GOOSES REEF MD   1900   85 83  210/ 10/ 12 1011.8F
COVE POINT MD    1800   84     240/  8/ 14 1011.8F
SOLOMONS ISLAND  1800      83                N/A
BISHOPS HEAD MD  1800   83 86  190/ 11/ 13 1010.7F
PINEY POINT MD   1800          230/  7/  8   N/A
POTOMAC MD       1900   86 84  230/  8/ 12 1009.9F   1/ 3
CAMBRIDGE MD     1800   86 84  230/ 10/ 13 1010.3F
LEWISETTA VA     1800   85 85  210/ 10/ 13 1010.9F
RAPPAHANNOCK LGT 1800          190/ 12/ 12 1012.5F
STINGRAY PT      1900   86 84  230/ 10/ 12 1011.6F   1/ 2
YORK RVR RNG VA  1800   85     210/  9/ 10 1011.3F
YORKTOWN VA      1800   87 84  220/ 11/ 14 1011.4F
JAMESTOWN VA     1900   88 87  210/  8/ 12   N/A
DOMINION TERM VA 1800   86     220/  6/  8 1011.8F
KIPTOPEKE VA     1800      81  180/  8/  9   N/A
CHES BAY BRIDGE  1800   86 76  200/  6/  9 1011.7F
CAPE HENRY VA    1800   89     170/  7/ 13   N/A
CHESAPEAKE LGHT  1800   80     180/ 20/ 21 1012.7F
WILLOUBY STN VA  1800   86     230/  7/  9 1012.9F
CAPE HENRY BUOY  1828      82                N/A     3/12   2/12
1ST LANDING BUOY 1900      81              1011.9R   1/ 3
CAPE CHARLES BUO 1826      82                N/A     2/12   2/12
OFFSHORE WE BUOY 1811      82                N/A     4/ 4   2/11
64NM E OF VA BCH 1850   80 81  210/ 17/ 21 1013.5S   4/ 5   2/11
DUCK PIER NC     1800   80 65  190/ 12/ 17 1012.8F
44100 DUCK FRF   1824      80                N/A     3/ 5
44056 DUCK FRF   1811      79                N/A     2/13   2/13
OREGON INLET NC  1800   77 82  200/ 22/ 25 1014.4R
HATTERAS NC      1800   74 80  220/ 10/ 14 1015.5F
DIAMOND SHLS NC  1850   76 83  190/ 12/ 14 1016.2F   3/ 7   3/ 7


USA.gov is the U.S. government's official web portal to all federal, state and local government web resources and services.